Hourly Data Report for March 24, 2019

OTTAWA INTL A
ONTARIO
Current Station Operator: NAVCAN

45°19'00.000" N
75°40'00.000" W
114.90 m
6106001
71628
YOW

Download Data

Hourly Data (March 2019)
Hourly Data Report for March 24, 2019
TIME
LST
Temp Definition
°C
Dew Point Definition
°C
Rel Hum Definition
%
Precip. Amount Definition
mm

Wind Dir Definition
10's deg

Wind Spd Definition
km/h
Visibility Definition
km
Stn Press Definition
kPa
Hmdx Definition


Wind Chill Definition


Weather Definition


00:00 -2.7 -11.0 53   23 14 24.1 100.27   -8 LegendNANA
01:00 -2.9 -10.0 58   22 16 24.1 100.24   -8 Clear
02:00 -3.6 -9.3 64   21 15 24.1 100.21   -9 LegendNANA
03:00 -3.9 -8.9 68   22 12 24.1 100.14   -9 LegendNANA
04:00 -3.6 -8.8 67   22 19 24.1 100.12   -10 Clear
05:00 -3.8 -8.8 69   21 17 24.1 100.10   -10 LegendNANA
06:00 -4.3 -8.7 72   21 13 24.1 100.14   -9 LegendNANA
07:00 -3.4 -8.0 71   22 18 24.1 100.18   -9 Mainly Clear
08:00 -1.6 -7.1 66   23 20 24.1 100.22   -7 LegendNANA
09:00 0.4 -5.9 63   24 18 24.1 100.25     LegendNANA
10:00 2.0 -4.8 61   29 22 24.1 100.27     Mostly Cloudy
11:00 2.6 -4.9 58   28 18 24.1 100.27     LegendNANA
12:00 3.2 -5.0 55   29 15 24.1 100.26     LegendNANA
13:00 3.1 -4.8 56   32 22 24.1 100.23     Mostly Cloudy
14:00 2.9 -4.7 57   35 17 24.1 100.17     LegendNANA
15:00 1.2 -3.5 71   35 23 24.1 100.19     LegendNANA
16:00 0.0 -3.1 80   34 21 9.7 100.20   -5 Snow
17:00 -1.2 -3.9 82   34 26 16.1 100.21   -8 Snow
18:00 -1.9 -3.7 87   33 21 2.4 100.27   -8 Snow
19:00 -2.4 -5.5 79   33 23 6.4 100.33   -9 Snow
20:00 -2.6 -4.6 87   27 11 24.1 100.38   -7 LegendNANA
21:00 -3.4 -5.9 83   29 18 24.1 100.42   -9 LegendNANA
22:00 -4.2 -6.1 87   29 21 24.1 100.45   -11 Mainly Clear
23:00 -4.7 -6.6 87   29 16 24.1 100.50   -10 LegendNANA

Notes on Data Quality.

Legend

  • E = Estimated
  • M = Missing
  • NA = Not Available*
  • [empty] = Indicates an unobserved value
Date modified: